Tracking 29059 objects as of 19-Jun-2024
HD Live streaming from Space Station
objects crossing your sky now

SPACEBEE-176

Track SPACEBEE-176 now!
10-day predictions


NORAD ID: 56975
Int'l Code: 2023-084AV
Perigee: 457.1 km
Apogee: 467.3 km
Inclination: 97.5 °
Period: 93.7 minutes
Semi major axis: 6833 km
RCS: Unknown
Launch date: June 12, 2023
Source: United States (US)
Launch site: AIR FORCE WESTERN TEST RANGE (AFWTR)
Your satellite tracking list
Your tracking list is empty




NASA's NSSDC Master Catalog

Two Line Element Set (TLE):
1 56975U 23084AV  24170.87719214  .00041068  00000-0  11323-2 0  9993
2 56975  97.5383 293.1192 0007396 341.9324  18.1656 15.36973579 56617
Source of the keplerian elements: AFSPC